Regional Weather Roundup
Issued by NWS

Home | Current Version | Previous Version | Graphics & Text | Print | Product List | Glossary On
Versions: 1 2 3 4 5 6 7 8 9 10 11 12 13 14 15 16 17 18 19 20 21 22 23 24 25 26 27 28 29 30 31 32 33 34 35 36 37 38 39 40 41 42 43 44 45 46 47 48 49 50
000
ASUS43 KMKX 201321
RWRWI

WISCONSIN REGIONAL WEATHER ROUNDUP
NATIONAL WEATHER SERVICE MILWAUKEE/SULLIVAN WI
800 AM CDT SAT SEP 20 2014

NOTE: "FAIR" INDICATES FEW OR NO CLOUDS BELOW 12,000 FEET WITH NO
SIGNIFICANT WEATHER AND/OR OBSTRUCTIONS TO VISIBILITY.

WIZ001-002-006>008-014>016-023>028-201400-
NORTHWEST WISCONSIN

CITY           SKY/WX    TMP DP  RH WIND       PRES   REMARKS
SUPERIOR ARPT  PTSUNNY   62  57  84 NW14G21   29.68R
ASHLAND        CLOUDY    65  61  87 W7        29.66R
HAYWARD        CLOUDY    64  61  90 W5        29.70R
SIREN          CLOUDY    62  60  91 W6        29.74R
RICE LAKE      CLOUDY    66  61  85 W10G21    29.73R
LADYSMITH      CLOUDY    67  64  89 W10       29.71S
EAU CLAIRE     CLOUDY    67  63  87 SW9       29.72R
MENOMONIE      SUNNY     68  64  87 W10       29.72R
NEW RICHMOND   PTSUNNY   64  61  91 NW13      29.75R
OSCEOLA        CLOUDY    63  62  98 W9        29.78R
$$

WIZ003>005-009-010-017-018-201400-
NORTH CENTRAL WISCONSIN

CITY           SKY/WX    TMP DP  RH WIND       PRES   REMARKS
WOODRUFF       CLOUDY    67  63  86 W10       29.66S
RHINELANDER    CLOUDY    65  63  93 SW10      29.68S
EAGLE RIVER    CLOUDY    66  64  93 SW9       29.65S
LAND O LAKES   CLOUDY    67  63  87 SW7       29.65S
PHILLIPS       CLOUDY    66  63  91 W8        29.67S
TOMAHAWK       CLOUDY    66  62  86 SW7       29.69S
MEDFORD        CLOUDY    63  61  95 SW10G17   29.71S
MERRILL        CLOUDY    64  63  94 SW12      29.70S
$$

WIZ029-030-035-036-043>047-201400-
CENTRAL WISCONSIN

CITY           SKY/WX    TMP DP  RH WIND       PRES   REMARKS
WAUSAU         PTSUNNY   65  61  87 SW13      29.69F
MOSINEE        SUNNY     63  63 100 SW10G16   29.72F
MARSHFIELD     MOSUNNY   64  62  93 SW10      29.72F
STEVENS POINT  CLOUDY    61  60  96 SW7       29.73F
WAUPACA        CLOUDY    64  63  95 S7        29.73S FOG
WAUTOMA        PTSUNNY   63  62  96 SW3       29.76S FOG
WISC RAPIDS    PTSUNNY   63  61  93 S7        29.74F
CAMP DOUGLAS   MOSUNNY   64  64 100 W8        29.76R
$$

WIZ011>013-019>022-031-037>040-048>050-201400-
NORTHEAST WISCONSIN

CITY           SKY/WX    TMP DP  RH WIND       PRES   REMARKS
ANTIGO         CLOUDY    63  61  93 SW14G23   29.71S
STURGEON BAY   CLOUDY    64  59  82 SW15G21   29.67S
GREEN BAY      LGT RAIN  64  62  93 SW13      29.71F
MANITOWOC      CLOUDY    65  61  87 SW9       29.74R
APPLETON       CLOUDY    63  61  94 SW15      29.74F FOG
CLINTONVILLE   CLOUDY    63  61  94 SW7       29.70F
OSHKOSH        CLOUDY    64  62  93 SW7       29.76S FOG
$$

WIZ032>034-041-042-053>061-201400-
SOUTHWEST WISCONSIN

CITY           SKY/WX    TMP DP  RH WIND       PRES   REMARKS
LA CROSSE      PTSUNNY   69  62  78 N9        29.76S
SPARTA         MOSUNNY   64  62  93 SW3       29.75F
VIROQUA        FAIR      64  64 100 SW8G16    29.78S
BOSCOBEL       CLOUDY    66  62  87 S3        29.79R
PRAIRIE DU CHI CLOUDY    66  61  82 CALM      29.79S
PLATTEVILLE    FAIR      65  63  94 SW7       29.84R
$$

WIZ056-057-062-063-064-067-068-201400-
SOUTH CENTRAL WISCONSIN

CITY           SKY/WX    TMP DP  RH WIND       PRES   REMARKS
BARABOO/DELLS  CLOUDY    64  61  91 SW9       29.78S
LONE ROCK      CLOUDY    69  62  78 CALM      29.79S
WATERTOWN      CLOUDY    64  62  96 W6        29.82R
MADISON        CLOUDY    66  62  87 VRB5      29.82S
MIDDLETON      FAIR      66  63  90 W10G16    29.82F
MONROE         CLOUDY    61  61 100 S17       29.80S FOG
JANESVILLE     MOSUNNY   64  61  88 S13       29.80F
$$

WIZ051-052-058>065-066-070>072-201400-
SOUTHEAST WISCONSIN

CITY           SKY/WX    TMP DP  RH WIND       PRES   REMARKS
MILWAUKEE      CLOUDY    65  58  78 SW20G30   29.78F
WAUKESHA       SUNNY     63  59  88 SW9G16    29.82S
MILWAUKEE/TIMM SUNNY     64  57  77 SW9G16    29.78F
RACINE         CLOUDY    65  57  75 SW18      29.81F
BURLINGTON     CLOUDY    60  57  89 S12G21    29.80F
KENOSHA        CLOUDY    64  58  80 SW16      29.82F
FOND DU LAC    CLOUDY    64  60  87 SW14G25   29.77R
SHEBOYGAN      CLOUDY    64  60  87 SW12      29.76R
WEST BEND      CLOUDY    63  57  82 SW8G16    29.80R
JUNEAU         CLOUDY    62  60  94 S9        29.82R FOG
$$

LSZ147-162-201400-
LAKE SUPERIOR

STATION/POSITION TIME  TEMP    WIND        PRES    WAVE
                       AIR SEA DIR/SP/G            HT/PER
                 (UTC) (F)     (DEG/KT/KT) (MB)    (FT/S)
W MID LAKE BUOY  1250   54 47  230/ 12/ 14 1001.0R   1
DEVILS ISLAND    1300   57     230/ 19/ 21 1002.6R
PORT WING        1240   62     260/ 14/ 17 1004.4R
SAXON HARBOR     1200   69     250/  5/ 14 1003.0R
$$

LMZ867-665-643>646-201400-
LAKE MICHIGAN

STATION/POSITION TIME  TEMP    WIND        PRES    WAVE
                       AIR SEA DIR/SP/G            HT/PER
                 (UTC) (F)     (DEG/KT/KT) (MB)    (FT/S)
N MID LAKE BUOY  1250   59 58  200/ 16/ 17 1004.3F   6/ 8
NORTHPORT PIER   1220   64     260/  6/ 20 1004.1F
SISTER BAY       1227          250/ 13/ 16   N/A
ALGOMA LAKESHORE 1039          280/ 17/ 29   N/A
KEWAUNEE LAKESHO 1300   65     240/ 10/ 12 1005.0F
SHEBOYGAN LAKESH 1300   65 53  210/ 10/ 11 1007.8R
PORT WASHINGTON  1220   66     210/  5/ 15 1007.8F
ATWATER BUOY     1300   63     210/ 16/ 19 1009.1F
MILWAUKEE LAKESH 1300   65     220/ 15/ 21   N/A
S MID LAKE BUOY  1250   64 64  200/ 21/ 27 1009.9F   4/ 6
KENOSHA   LAKESH 1300   65     220/ 15/ 22 1009.5F
$$

TC  - TEMPERATURE IN CELSIUS
VSB - VISIBILITY IN STATUTE MILES
WCI - WIND CHILL INDEX
HX  - HEAT INDEX




USA.gov is the U.S. government's official web portal to all federal, state and local government web resources and services.